1498316400.01,25019,22.44,74226.0,20.29,-16.27,-21.57,0,*48
1498316401.23,25020,22.44,74230.0,20.29,-17.11,-22.37,0,*43
1498316402.47,25021,22.44,74226.8,20.31,-16.41,-21.43,0,*4F
1498316403.7,25022,22.44,74226.5,20.29,-17.03,-22.07,0,*41
1498316404.9,25023,22.44,74224.0,20.29,-16.89,-22.03,0,*47
1498316406.13,25024,22.44,74226.0,20.29,-18.01,-22.87,0,*42
1498316407.36,25025,22.44,74224.3,20.29,-17.93,-22.87,0,*47
1498316408.59,25026,22.44,74226.8,20.27,-17.21,-22.11,0,*4C
1498316409.82,25027,22.44,74224.0,20.27,-16.89,-21.67,0,*4C
1498316411.04,25028,22.44,74226.8,20.27,-17.63,-22.27,0,*41
1498316412.3,25029,22.44,74226.0,20.27,-17.21,-21.83,0,*4B
1498316413.52,25030,22.44,74226.3,20.27,-16.89,-21.33,0,*4B
1498316414.78,25031,22.44,74228.3,20.27,-16.65,-20.99,0,*49
1498316416.04,25032,22.44,74228.3,20.27,-17.41,-21.83,0,*47
1498316417.28,25033,22.44,74224.0,20.27,-17.63,-21.97,0,*43
1498316418.49,25034,22.44,74230.5,20.27,-18.25,-22.57,0,*46
1498316419.71,25035,22.44,74226.0,20.27,-18.35,-22.41,0,*41
1498316420.96,25036,22.44,74224.8,20.27,-17.63,-21.53,0,*4E
1498316422.16,25037,22.44,74226.5,20.29,-17.87,-21.73,0,*49
1498316423.36,25038,22.44,74224.8,20.27,-18.07,-21.93,0,*41
1498316424.61,25039,22.44,74228.3,20.27,-18.55,-22.21,0,*4D
1498316425.82,25040,22.44,74226.5,20.27,-17.83,-21.39,0,*4D
1498316427.01,25041,22.44,74228.0,20.27,-18.25,-21.73,0,*41
1498316428.27,25042,22.44,74226.3,20.27,-18.35,-21.67,0,*46
1498316429.5,25043,22.44,74224.3,20.27,-18.21,-21.53,0,*45
1498316430.72,25044,22.44,74228.3,20.27,-18.89,-22.07,0,*42
1498316431.92,25045,22.44,74224.8,20.27,-18.99,-22.07,0,*42
1498316433.18,25046,22.44,74224.3,20.29,-18.93,-21.87,0,*4E
1498316434.41,25047,22.44,74228.8,20.27,-18.25,-21.03,0,*40
1498316435.62,25048,22.44,74228.3,20.29,-18.69,-21.47,0,*49
1498316436.83,25049,22.44,74226.5,20.29,-18.83,-21.47,0,*4C
1498316438.07,25050,22.44,74224.8,20.29,-19.27,-21.77,0,*48
1498316439.3,25051,22.44,74224.0,20.29,-19.41,-21.93,0,*43
1498316440.5,25052,22.44,74226.0,20.29,-19.47,-21.93,0,*46
1498316441.74,25053,22.44,74224.3,20.29,-19.27,-21.63,0,*4E
1498316442.97,25054,22.44,74226.3,20.29,-20.15,-22.27,0,*41
1498316444.19,25055,22.44,74226.0,20.29,-20.35,-22.57,0,*45
1498316445.43,25056,22.44,74224.8,20.29,-19.61,-21.47,0,*4F
1498316446.66,25057,22.44,74226.8,20.29,-18.99,-20.83,0,*41
1498316447.9,25058,22.44,74224.0,20.29,-19.27,-21.09,0,*49
1498316449.12,25059,22.44,74226.3,20.29,-19.75,-21.57,0,*44
1498316450.38,25060,22.44,74226.3,20.29,-20.49,-22.17,0,*4C
1498316451.61,25061,22.44,74224.8,20.31,-19.95,-21.43,0,*4D
1498316452.84,25062,22.44,74226.5,20.29,-20.53,-22.07,0,*44
1498316454.04,25063,22.44,74224.3,20.29,-21.13,-22.41,0,*42
1498316455.27,25064,22.44,74224.8,20.29,-20.79,-21.93,0,*44
1498316456.49,25065,22.44,74228.0,20.27,-21.39,-22.77,0,*47
1498316457.7,25066,22.44,74224.5,20.29,-20.63,-21.77,0,*47
1498316458.95,25067,22.44,74224.3,20.29,-20.49,-21.57,0,*4C
1498316460.22,25068,22.44,74226.5,20.31,-19.65,-20.63,0,*48
1498316461.44,25069,22.44,74222.5,20.29,-20.83,-21.73,0,*42
1498316462.67,25070,22.44,74226.5,20.29,-21.43,-22.17,0,*46
1498316463.88,25071,22.44,74230.8,20.29,-21.73,-22.57,0,*40
1498316465.08,25072,22.44,74224.5,20.29,-21.09,-21.73,0,*4B
1498316466.28,25073,22.44,74226.8,20.29,-21.43,-21.93,0,*4A
1498316467.5,25074,22.44,74226.8,20.29,-21.13,-21.57,0,*40
1498316468.73,25075,22.44,74226.3,20.27,-21.17,-21.53,0,*4F
1498316469.94,25076,22.44,74226.5,20.29,-21.13,-21.47,0,*43
1498316471.16,25077,22.44,74228.5,20.27,-22.73,-22.93,0,*43
1498316472.38,25078,22.44,74228.3,20.27,-23.09,-23.43,0,*4C
1498316473.66,25079,22.44,74226.3,20.25,-23.95,-24.21,0,*49
1498316474.88,25080,22.44,74224.8,20.23,-23.29,-23.39,0,*40
1498316476.11,25081,22.44,74230.3,20.23,-21.73,-21.67,0,*45
1498316477.34,25082,22.44,74228.8,20.23,-22.03,-21.87,0,*4C
1498316478.57,25083,22.44,74226.5,20.23,-22.17,-22.03,0,*47
1498316479.79,25084,22.44,74226.0,20.25,-22.63,-22.37,0,*42
1498316480.99,25085,22.44,74226.8,20.23,-21.39,-21.09,0,*47
1498316482.24,25086,22.44,74226.0,20.25,-21.43,-21.03,0,*45
1498316483.49,25087,22.44,74228.3,20.25,-21.39,-21.03,0,*49
1498316484.74,25088,22.44,74226.5,20.25,-21.57,-21.09,0,*44
1498316486.01,25089,22.44,74226.5,20.25,-21.57,-21.27,0,*49
1498316487.25,25090,22.44,74228.8,20.27,-24.51,-24.21,0,*43
1498316488.45,25091,22.44,74222.3,20.23,-25.09,-24.93,0,*43
1498316489.69,25092,22.44,74224.0,20.21,-24.93,-24.41,0,*4F
1498316490.95,25093,22.44,74226.3,20.21,-23.19,-22.53,0,*4E
1498316492.17,25094,22.44,74226.5,20.21,-22.37,-21.73,0,*45
1498316493.4,25095,22.44,74226.0,20.15,-23.49,-22.87,0,*43
1498316494.63,25096,22.44,74224.3,20.15,-24.87,-24.31,0,*4E
1498316495.88,25097,22.44,74228.3,20.15,-23.75,-23.23,0,*41
1498316497.11,25098,22.44,74224.0,20.11,-24.05,-23.23,0,*4A
1498316498.34,25099,22.44,74224.0,20.11,-23.85,-23.13,0,*47
1498316499.54,25100,22.44,74224.0,20.11,-24.57,-23.79,0,*42
1498316500.76,25101,22.44,74224.5,20.11,-24.93,-24.25,0,*45
1498316502.01,25102,22.44,74222.5,20.09,-23.65,-22.57,0,*42
1498316503.24,25103,22.44,74224.0,20.09,-22.83,-22.03,0,*4B
1498316504.52,25104,22.44,74226.0,20.09,-23.29,-22.47,0,*4D
1498316505.77,25105,22.44,74226.8,20.09,-23.13,-22.21,0,*45
1498316506.99,25106,22.44,74224.5,20.09,-22.87,-21.93,0,*40
1498316508.19,25107,22.44,74228.5,20.07,-22.67,-21.73,0,*4F
1498316509.43,25108,22.44,74224.8,20.11,-21.87,-20.93,0,*45
1498316510.69,25109,22.44,74224.5,20.11,-21.87,-20.99,0,*4E
1498316511.97,25110,22.44,74226.0,20.09,-22.21,-21.23,0,*40
1498316513.23,25111,22.44,74228.3,20.11,-22.17,-20.99,0,*4D
1498316514.49,25112,22.44,74226.3,20.13,-22.97,-21.97,0,*4B
1498316515.72,25113,22.44,74224.8,20.11,-23.43,-22.31,0,*4F
1498316516.96,25114,22.44,74224.0,20.11,-24.47,-23.29,0,*43
1498316518.21,25115,22.44,74224.5,20.09,-23.49,-22.07,0,*4F
1498316519.43,25116,22.44,74224.3,20.07,-23.65,-22.41,0,*4E
1498316520.67,25117,22.44,74226.3,20.07,-23.59,-22.17,0,*43
1498316521.91,25118,22.44,74224.3,20.09,-22.07,-20.79,0,*42
1498316523.11,25119,22.44,74224.3,20.11,-22.07,-20.59,0,*48
1498316524.36,25120,22.44,74224.3,20.09,-21.57,-20.05,0,*44
1498316525.62,25121,22.44,74224.0,20.11,-22.31,-20.83,0,*41
1498316526.89,25122,22.44,74226.0,20.09,-22.73,-20.99,0,*46
1498316528.11,25123,22.44,74226.5,20.11,-22.87,-21.57,0,*46
1498316529.37,25124,22.44,74224.3,20.09,-24.11,-22.57,0,*42
1498316530.6,25125,22.44,74226.0,20.07,-23.33,-21.63,0,*4E
1498316531.89,25126,22.44,74226.3,20.09,-22.17,-20.49,0,*4D
1498316533.16,25127,22.44,74226.3,20.09,-23.29,-21.57,0,*4E
1498316534.41,25128,22.44,74222.5,20.09,-23.79,-22.17,0,*43
1498316535.67,25129,22.44,74226.0,20.07,-22.73,-20.99,0,*43
1498316536.9,25130,22.44,74224.0,20.07,-23.53,-21.77,0,*49
1498316538.12,25131,22.44,74226.5,20.07,-24.31,-22.57,0,*4A
1498316539.32,25132,22.5,74228.8,20.07,-23.39,-21.63,0,*42
1498316540.57,25133,22.44,74224.5,20.05,-24.11,-22.41,0,*4F
1498316541.79,25134,22.44,74226.0,20.05,-23.59,-21.73,0,*41
1498316543.06,25135,22.44,74222.0,20.05,-23.75,-21.87,0,*45
1498316544.32,25136,22.44,74224.0,20.03,-24.41,-22.47,0,*4F
1498316545.55,25137,22.44,74224.3,20.03,-23.33,-21.43,0,*4B
1498316546.81,25138,22.44,74226.3,20.01,-23.13,-21.27,0,*46
1498316548.09,25139,22.44,74224.8,20.01,-24.15,-22.17,0,*46
1498316549.32,25140,22.44,74226.5,20.03,-23.43,-21.53,0,*4D
1498316550.58,25141,22.44,74226.3,20.03,-23.19,-21.27,0,*40
1498316551.8,25142,22.44,74226.5,19.99,-24.47,-22.57,0,*42
1498316553.01,25143,22.44,74226.5,19.99,-23.79,-21.77,0,*48
1498316554.24,25144,22.44,74224.3,19.99,-22.93,-20.83,0,*40
1498316555.48,25145,22.44,74224.3,19.99,-24.25,-22.67,0,*42
1498316556.7,25146,22.44,74226.3,19.95,-26.23,-24.25,0,*49
1498316557.93,25147,22.44,74224.0,19.93,-25.87,-23.89,0,*42
1498316559.15,25148,22.44,74226.5,19.91,-26.55,-24.57,0,*47
1498316560.42,25149,22.44,74226.8,19.89,-27.61,-25.65,0,*49
1498316561.7,25150,22.44,74224.3,19.85,-28.05,-25.97,0,*4D
1498316562.93,25151,22.44,74226.8,19.81,-28.15,-26.07,0,*43
1498316564.16,25152,22.44,74224.3,19.75,-28.43,-26.39,0,*45
1498316565.4,25153,22.44,74226.0,19.71,-27.55,-25.55,0,*41
1498316566.65,25154,22.44,74224.3,19.67,-26.81,-24.67,0,*49
1498316567.9,25155,22.5,74226.0,19.63,-27.03,-24.87,0,*49
1498316569.16,25156,22.44,74226.3,19.63,-25.75,-23.43,0,*46
1498316570.4,25157,22.5,74226.5,19.61,-24.11,-21.57,0,*41
1498316571.63,25158,22.44,74224.0,19.61,-23.49,-21.13,0,*44
1498316572.84,25159,22.44,74224.8,19.61,-24.31,-21.77,0,*4F
1498316574.09,25160,22.5,74226.0,19.59,-24.21,-21.43,0,*48
1498316575.35,25161,22.5,74226.5,19.61,-24.41,-21.87,0,*4C
1498316576.59,25162,22.5,74224.3,19.61,-25.29,-22.73,0,*48
1498316577.8,25163,22.44,74226.5,19.61,-24.31,-21.63,0,*43
1498316579.06,25164,22.44,74226.5,19.59,-22.57,-19.65,0,*44
1498316580.29,25165,22.44,74222.8,19.61,-22.53,-19.57,0,*4B
1498316581.55,25166,22.5,74226.3,19.63,-23.59,-20.49,0,*44
1498316582.76,25167,22.44,74224.5,19.61,-24.31,-21.39,0,*48
1498316584.01,25168,22.44,74226.5,19.59,-23.85,-20.73,0,*4B
1498316585.21,25169,22.44,74222.5,19.61,-22.87,-19.91,0,*44
1498316586.46,25170,22.5,74228.0,19.63,-22.37,-19.31,0,*4F
1498316587.72,25171,22.5,74224.3,19.65,-22.31,-19.13,0,*4E
1498316588.97,25172,22.5,74224.3,19.63,-22.67,-19.41,0,*4F
1498316590.24,25173,22.44,74224.8,19.63,-23.65,-20.35,0,*44
1498316591.47,25174,22.44,74220.3,19.63,-23.75,-20.29,0,*4F
1498316592.7,25175,22.5,74224.0,19.65,-23.39,-19.95,0,*4D
1498316593.97,25176,22.5,74224.8,19.63,-23.65,-20.15,0,*43
1498316595.21,25177,22.44,74226.0,19.61,-24.47,-20.99,0,*43
1498316596.44,25178,22.5,74226.3,19.61,-24.77,-21.27,0,*4B
1498316597.7,25179,22.5,74224.5,19.59,-25.71,-22.11,0,*40
1498316598.98,25180,22.44,74220.5,19.59,-26.17,-22.47,0,*46
1498316600.2,25181,22.5,74224.0,19.55,-26.23,-22.41,0,*4A
1498316601.45,25182,22.5,74226.8,19.53,-23.85,-19.31,0,*49
1498316602.67,25183,22.5,74222.3,19.53,-23.09,-18.93,0,*45
1498316603.88,25184,22.5,74222.5,19.53,-22.67,-18.49,0,*4C
1498316605.1,25185,22.5,74222.5,19.55,-22.97,-18.65,0,*4A
1498316606.33,25186,22.5,74222.0,19.53,-22.03,-17.55,0,*4E
1498316607.59,25187,22.5,74224.0,19.57,-21.53,-17.03,0,*4E
1498316608.78,25188,22.5,74224.0,19.57,-21.43,-16.93,0,*48
1498316610.01,25189,22.44,74220.0,19.61,-21.77,-17.03,0,*43
1498316611.23,25190,22.5,74224.8,19.61,-21.57,-16.97,0,*45
1498316612.43,25191,22.5,74222.8,19.61,-21.39,-16.41,0,*47
1498316613.69,25192,22.5,74226.5,19.65,-20.73,-15.89,0,*48
1498316614.95,25193,22.44,74222.8,19.65,-20.53,-15.63,0,*4F
1498316616.2,25194,22.44,74220.0,19.69,-21.77,-16.69,0,*4A
1498316617.48,25195,22.44,74220.5,19.69,-21.57,-16.27,0,*43
1498316618.73,25196,22.5,74226.0,19.69,-21.33,-15.99,0,*44
1498316619.96,25197,22.5,74226.0,19.71,-21.97,-16.41,0,*44
1498316621.19,25198,22.5,74224.3,19.71,-21.97,-16.37,0,*4A
1498316622.42,25199,22.5,74226.3,19.77,-20.59,-14.89,0,*49
1498316623.7,25200,22.5,74222.8,19.77,-20.83,-14.97,0,*42
1498316624.93,25201,22.5,74224.5,19.79,-21.73,-15.85,0,*41
1498316626.13,25202,22.5,74224.5,19.79,-22.37,-16.55,0,*4F
1498316627.38,25203,22.5,74224.3,19.79,-23.23,-17.21,0,*48
1498316628.65,25204,22.5,74222.8,19.77,-23.69,-17.55,0,*4C
1498316629.9,25205,22.5,74220.0,19.77,-22.77,-16.45,0,*43
1498316631.15,25206,22.5,74226.5,19.77,-21.77,-15.35,0,*47
1498316632.39,25207,22.5,74222.3,19.79,-21.53,-15.07,0,*4F
1498316633.58,25208,22.5,74220.0,19.79,-22.11,-15.67,0,*43
1498316634.82,25209,22.44,74222.5,19.81,-22.37,-15.71,0,*46
1498316636.1,25210,22.44,74218.3,19.81,-23.03,-16.27,0,*48
1498316637.33,25211,22.5,74222.5,19.79,-24.83,-17.87,0,*4A
1498316638.58,25212,22.5,74222.8,19.77,-25.03,-18.07,0,*49
1498316639.78,25213,22.5,74220.0,19.75,-25.19,-18.17,0,*40
1498316641.01,25214,22.5,74222.8,19.71,-25.03,-17.87,0,*4E
1498316642.26,25215,22.5,74222.3,19.67,-25.03,-17.93,0,*4D
1498316643.46,25216,22.5,74226.3,19.67,-25.39,-18.21,0,*41
1498316644.7,25217,22.44,74216.3,19.63,-25.91,-18.59,0,*49
1498316645.92,25218,22.44,74220.0,19.59,-26.61,-19.13,0,*4C
1498316647.15,25219,22.5,74218.8,19.57,-26.49,-18.89,0,*4B
1498316648.38,25220,22.5,74220.8,19.55,-26.39,-18.73,0,*41
1498316649.58,25221,22.5,74220.5,19.49,-25.91,-18.21,0,*4B
1498316650.82,25222,22.5,74222.8,19.49,-26.81,-19.13,0,*4A
1498316652.02,25223,22.5,74222.0,19.45,-27.51,-19.51,0,*4D
1498316653.23,25224,22.5,74220.8,19.41,-26.61,-18.49,0,*44
1498316654.47,25225,22.5,74220.8,19.37,-26.17,-18.11,0,*48
1498316655.68,25226,22.5,74220.5,19.37,-25.87,-17.83,0,*45
1498316656.88,25227,22.5,74224.8,19.33,-26.61,-18.45,0,*4E
1498316658.11,25228,22.5,74222.0,19.27,-25.91,-17.63,0,*43
1498316659.31,25229,22.5,74222.0,19.27,-26.49,-18.21,0,*4D
1498316660.52,25230,22.5,74222.3,19.23,-27.45,-19.07,0,*49
1498316661.72,25231,22.5,74220.8,19.19,-26.07,-17.49,0,*42
1498316662.95,25232,22.5,74222.3,19.19,-25.65,-17.21,0,*48
1498316664.2,25233,22.5,74218.0,19.17,-26.23,-17.55,0,*45
1498316665.44,25234,22.5,74220.3,19.15,-26.71,-17.79,0,*49
1498316666.69,25235,22.5,74220.5,19.11,-27.45,-18.55,0,*4B
1498316667.95,25236,22.5,74222.8,19.07,-27.35,-18.31,0,*4A
1498316669.23,25237,22.5,74222.5,18.99,-27.39,-18.31,0,*41
1498316670.47,25238,22.5,74220.0,18.97,-26.97,-17.83,0,*43
1498316671.72,25239,22.44,74218.5,18.95,-26.87,-17.55,0,*4A
1498316672.94,25240,22.5,74218.0,18.93,-27.19,-17.73,0,*40
1498316674.18,25241,22.5,74218.8,18.93,-26.77,-17.35,0,*4A
1498316675.44,25242,22.5,74218.5,18.87,-26.61,-17.21,0,*4E
1498316676.71,25243,22.5,74220.8,18.87,-26.81,-17.35,0,*44
1498316677.94,25244,22.5,74222.8,18.79,-26.39,-16.89,0,*47
1498316679.2,25245,22.5,74218.8,18.79,-26.29,-16.83,0,*4D
1498316680.42,25246,22.5,74222.0,18.75,-25.91,-16.45,0,*48
1498316681.64,25247,22.5,74222.8,18.77,-26.03,-16.55,0,*42
1498316682.92,25248,22.5,74222.8,18.71,-26.77,-17.55,0,*49
1498316684.18,25249,22.5,74222.0,18.69,-26.93,-17.45,0,*4A
1498316685.43,25250,22.5,74218.0,18.67,-26.29,-16.69,0,*42
1498316686.69,25251,22.5,74222.3,18.63,-25.55,-16.09,0,*49
1498316687.96,25252,22.5,74222.0,18.65,-25.81,-16.23,0,*4D
1498316689.16,25253,22.5,74222.3,18.59,-24.97,-15.63,0,*42
1498316690.42,25254,22.5,74222.0,18.59,-24.41,-14.93,0,*40
1498316691.65,25255,22.5,74222.5,18.57,-24.61,-15.11,0,*46
1498316692.92,25256,22.5,74222.5,18.57,-24.31,-14.97,0,*4F
1498316694.17,25257,22.5,74222.0,18.57,-24.47,-15.29,0,*4B
1498316695.38,25258,22.5,74218.8,18.59,-24.57,-15.49,0,*4D
1498316696.62,25259,22.5,74222.0,18.57,-24.35,-15.29,0,*40
1498316697.82,25260,22.5,74220.3,18.55,-24.97,-16.03,0,*4B
1498316699.09,25261,22.5,74222.3,18.53,-25.03,-16.13,0,*41
1498316700.34,25262,22.5,74218.3,18.53,-24.87,-16.03,0,*4E
1498316701.6,25263,22.5,74222.0,18.53,-24.25,-15.71,0,*41
1498316702.82,25264,22.5,74222.0,18.51,-24.15,-15.67,0,*40
1498316704.08,25265,22.5,74218.3,18.49,-24.61,-16.27,0,*4C
1498316705.34,25266,22.5,74222.5,18.49,-24.51,-16.27,0,*4C
1498316706.62,25267,22.5,74222.5,18.49,-23.99,-15.85,0,*45
1498316707.87,25268,22.5,74218.0,18.49,-23.53,-15.67,0,*40
1498316709.15,25269,22.5,74220.5,18.49,-23.53,-15.85,0,*4D
1498316710.38,25270,22.5,74216.8,18.47,-23.65,-15.99,0,*43
1498316711.6,25271,22.5,74220.8,18.47,-24.15,-16.55,0,*41
1498316712.85,25272,22.5,74218.3,18.45,-24.57,-17.03,0,*44
1498316714.12,25273,22.5,74220.0,18.45,-24.51,-17.07,0,*47
1498316715.39,25274,22.5,74220.5,18.45,-24.83,-17.55,0,*48
1498316716.68,25275,22.5,74220.5,18.41,-24.41,-17.11,0,*43
1498316717.88,25276,22.5,74216.5,18.43,-23.89,-16.97,0,*4E
1498316719.11,25277,22.5,74222.3,18.43,-22.63,-15.89,0,*46
1498316720.34,25278,22.5,74222.3,18.37,-22.03,-15.25,0,*4A
1498316721.62,25279,22.5,74224.5,18.41,-21.67,-15.21,0,*4F
1498316722.89,25280,22.5,74218.8,18.45,-21.67,-15.29,0,*45
1498316724.17,25281,22.5,74220.8,18.45,-22.17,-15.89,0,*4A
1498316725.43,25282,22.5,74220.5,18.45,-21.53,-15.49,0,*46
1498316726.66,25283,22.5,74220.5,18.47,-21.73,-15.81,0,*43
1498316727.92,25284,22.5,74218.0,18.49,-21.33,-15.53,0,*41
1498316729.17,25285,22.5,74222.5,18.53,-21.17,-15.35,0,*4D
1498316730.42,25286,22.5,74220.0,18.53,-20.69,-15.01,0,*41
1498316731.69,25287,22.5,74216.8,18.53,-20.15,-14.55,0,*4B
1498316732.94,25288,22.5,74222.8,18.57,-20.25,-14.79,0,*4D
1498316734.15,25289,22.5,74222.3,18.59,-20.93,-15.53,0,*46
1498316735.38,25290,22.5,74222.0,18.59,-20.79,-15.49,0,*41
1498316736.58,25291,22.5,74220.5,18.63,-20.89,-15.63,0,*4E
1498316737.81,25292,22.5,74218.3,18.65,-20.93,-15.99,0,*45
1498316739.06,25293,22.5,74222.0,18.67,-20.79,-15.85,0,*4F
1498316740.27,25294,22.5,74218.0,18.69,-20.63,-15.71,0,*46
1498316741.53,25295,22.5,74220.8,18.69,-20.99,-16.13,0,*45
1498316742.75,25296,22.5,74220.5,18.69,-19.95,-15.29,0,*4A
1498316744.0,25297,22.5,74216.5,18.71,-20.15,-15.63,0,*4E
1498316745.22,25298,22.5,74222.8,18.73,-19.37,-14.89,0,*4C
1498316746.47,25299,22.5,74218.3,18.77,-19.81,-15.43,0,*43
1498316747.69,25300,22.5,74220.0,18.77,-20.19,-16.03,0,*4E
1498316748.93,25301,22.5,74218.0,18.77,-19.57,-15.67,0,*4E
1498316750.16,25302,22.5,74218.0,18.81,-19.75,-16.09,0,*4F
1498316751.4,25303,22.5,74216.0,18.85,-19.07,-15.57,0,*47
1498316752.66,25304,22.5,74220.5,18.85,-18.59,-15.35,0,*4E
1498316753.92,25305,22.5,74218.3,18.87,-18.31,-15.07,0,*42
1498316755.18,25306,22.5,74216.5,18.87,-17.79,-14.89,0,*45
1498316756.43,25307,22.5,74216.8,18.89,-17.97,-15.29,0,*41
1498316757.68,25308,22.5,74222.0,18.91,-18.65,-16.13,0,*4F
1498316758.93,25309,22.5,74220.0,18.95,-17.79,-15.63,0,*4C
1498316760.19,25310,22.5,74218.8,18.95,-18.55,-16.59,0,*4F
1498316761.4,25311,22.5,74216.3,18.97,-19.51,-17.69,0,*4B
1498316762.63,25312,22.5,74218.3,18.97,-17.83,-16.27,0,*42
1498316763.83,25313,22.5,74218.0,18.97,-17.31,-15.99,0,*4C
1498316765.09,25314,22.5,74220.5,19.01,-16.97,-15.81,0,*41
1498316766.3,25315,22.5,74218.8,19.03,-18.73,-17.83,0,*46
1498316767.56,25316,22.5,74222.0,19.01,-18.31,-17.49,0,*47
1498316768.8,25317,22.5,74220.3,19.03,-17.21,-16.55,0,*46
1498316770.03,25318,22.5,74222.5,19.07,-16.51,-15.99,0,*48
1498316771.3,25319,22.5,74222.0,19.09,-17.03,-16.69,0,*4D
1498316772.56,25320,22.5,74218.8,19.09,-17.03,-16.89,0,*49
1498316773.78,25321,22.5,74220.5,19.07,-17.07,-16.93,0,*49
1498316775.03,25322,22.5,74218.5,19.13,-16.23,-16.37,0,*46
1498316776.28,25323,22.5,74218.3,19.13,-16.93,-17.25,0,*4E
1498316777.53,25324,22.5,74218.8,19.13,-16.27,-16.97,0,*4E
1498316778.76,25325,22.5,74218.8,19.13,-16.03,-16.83,0,*4C
1498316780.01,25326,22.5,74216.5,19.13,-16.23,-16.97,0,*48
1498316781.27,25327,22.5,74216.8,19.17,-15.89,-16.79,0,*4E
1498316782.52,25328,22.5,74218.3,19.17,-15.29,-16.31,0,*47
1498316783.77,25329,22.5,74218.3,19.17,-15.11,-16.17,0,*49
1498316784.96,25330,22.5,74220.0,19.23,-15.07,-16.41,0,*42
1498316786.19,25331,22.5,74222.3,19.21,-14.23,-15.67,0,*41
1498316787.42,25332,22.5,74218.5,19.23,-13.61,-15.15,0,*44
1498316788.67,25333,22.5,74218.8,19.25,-13.69,-15.57,0,*4D
1498316789.93,25334,22.5,74216.8,19.25,-13.87,-15.75,0,*4A
1498316791.13,25335,22.5,74220.0,19.31,-14.23,-16.41,0,*43
1498316792.4,25336,22.5,74220.5,19.33,-14.01,-16.27,0,*42
1498316793.63,25337,22.5,74216.3,19.33,-13.79,-16.41,0,*4B
1498316794.87,25338,22.5,74220.3,19.33,-13.51,-16.13,0,*49
1498316796.12,25339,22.5,74220.5,19.35,-13.55,-16.31,0,*4A
1498316797.35,25340,22.5,74222.8,19.35,-13.43,-16.45,0,*40
1498316798.57,25341,22.5,74220.5,19.35,-13.55,-16.93,0,*4D
1498316799.81,25342,22.5,74222.5,19.37,-13.83,-17.31,0,*4E
1498316801.03,25343,22.5,74222.0,19.37,-13.11,-16.69,0,*48
1498316802.29,25344,22.5,74222.0,19.39,-13.11,-17.03,0,*4C
1498316803.55,25345,22.5,74222.3,19.39,-13.69,-17.79,0,*4F
1498316804.83,25346,22.5,74222.3,19.39,-11.59,-15.89,0,*40
1498316806.04,25347,22.5,74222.8,19.41,-11.19,-15.53,0,*4D
1498316807.28,25348,22.5,74222.3,19.41,-10.71,-15.63,0,*4E
1498316808.51,25349,22.5,74220.5,19.45,-10.49,-15.43,0,*42
1498316809.76,25350,22.5,74220.5,19.47,-10.19,-15.57,0,*48
1498316810.99,25351,22.5,74222.0,19.47,-10.15,-15.67,0,*46
1498316812.2,25352,22.5,74222.5,19.49,-10.15,-15.95,0,*46
1498316813.43,25353,22.5,74220.5,19.53,-10.41,-16.37,0,*46
1498316814.66,25354,22.5,74218.5,19.53,-10.19,-16.31,0,*4A
1498316815.88,25355,22.5,74222.8,19.53,-10.09,-16.31,0,*4A
1498316817.12,25356,22.5,74218.0,19.57,-9.61,-15.85,0,*77
1498316818.34,25357,22.5,74220.0,19.57,-9.67,-16.17,0,*78
1498316819.58,25358,22.5,74222.8,19.59,-9.67,-16.27,0,*7A
1498316820.79,25359,22.5,74224.3,19.61,-10.15,-16.83,0,*43
1498316822.02,25360,22.5,74220.5,19.63,-10.93,-17.83,0,*44
1498316823.28,25361,22.5,74220.8,19.63,-11.07,-17.87,0,*4D
1498316824.52,25362,22.5,74220.3,19.63,-10.79,-17.73,0,*4D
1498316825.78,25363,22.5,74220.0,19.65,-10.35,-17.21,0,*45
1498316827.01,25364,22.5,74222.3,19.65,-10.49,-17.31,0,*48
1498316828.26,25365,22.5,74220.3,19.67,-11.67,-18.89,0,*4A
1498316829.48,25366,22.5,74222.3,19.67,-11.89,-19.03,0,*4A
1498316830.73,25367,22.5,74220.0,19.69,-11.37,-18.41,0,*47
1498316831.97,25368,22.5,74222.0,19.69,-11.01,-18.07,0,*4F
1498316833.22,25369,22.5,74222.0,19.69,-11.01,-17.93,0,*4C
1498316834.44,25370,22.5,74222.3,19.75,-11.41,-18.59,0,*44
1498316835.65,25371,22.5,74220.0,19.75,-12.29,-19.47,0,*46
1498316836.87,25372,22.5,74224.0,19.75,-11.97,-18.99,0,*41
1498316838.07,25373,22.5,74220.8,19.75,-11.19,-18.07,0,*41
1498316839.3,25374,22.5,74222.8,19.79,-11.29,-18.07,0,*49
1498316840.52,25375,22.5,74222.5,19.79,-11.81,-18.65,0,*4E
1498316841.8,25376,22.5,74222.0,19.81,-11.29,-17.93,0,*4E
1498316843.03,25377,22.5,74222.0,19.83,-11.51,-18.17,0,*41
1498316844.25,25378,22.5,74220.8,19.87,-11.97,-18.65,0,*45
1498316845.5,25379,22.5,74222.8,19.85,-12.43,-18.93,0,*45
1498316846.75,25380,22.5,74220.8,19.89,-12.35,-18.83,0,*4F
1498316848.0,25381,22.5,74222.5,19.89,-13.29,-19.75,0,*4A
1498316849.24,25382,22.5,74220.5,19.91,-12.53,-18.73,0,*4B
1498316850.49,25383,22.56,74224.5,19.93,-12.15,-18.17,0,*48
1498316851.71,25384,22.56,74226.8,19.95,-12.43,-18.31,0,*4E
1498316852.97,25385,22.5,74220.0,19.99,-12.65,-18.35,0,*43
1498316854.18,25386,22.5,74220.8,20.03,-14.23,-19.99,0,*4A
1498316855.41,25387,22.5,74222.3,20.01,-14.37,-19.91,0,*44
1498316856.64,25388,22.5,74220.3,20.03,-14.37,-19.85,0,*4C
1498316857.85,25389,22.56,74224.5,20.03,-14.19,-19.51,0,*48
1498316859.08,25390,22.5,74222.0,20.05,-14.69,-20.05,0,*4A
1498316860.34,25391,22.5,74222.0,20.05,-14.83,-19.95,0,*4C
1498316861.56,25392,22.56,74220.0,20.03,-14.93,-19.99,0,*44
1498316862.79,25393,22.5,74220.0,20.05,-14.61,-19.51,0,*4A
1498316864.01,25394,22.56,74222.8,20.07,-14.69,-19.31,0,*41
1498316865.22,25395,22.5,74218.3,20.07,-15.29,-19.91,0,*4F
1498316866.49,25396,22.5,74218.5,20.09,-15.81,-20.15,0,*46
1498316867.74,25397,22.5,74220.5,20.09,-15.35,-19.51,0,*42
1498316869.02,25398,22.5,74222.3,20.09,-16.51,-20.49,0,*4F
1498316870.25,25399,22.5,74222.0,20.11,-16.09,-19.99,0,*4D
1498316871.51,25400,22.5,74220.3,20.15,-15.85,-19.61,0,*4E
1498316872.77,25401,22.5,74222.8,20.13,-16.93,-20.53,0,*46
1498316874.0,25402,22.56,74224.3,20.11,-17.03,-20.43,0,*4E
1498316875.23,25403,22.56,74222.0,20.13,-16.83,-19.99,0,*49
1498316876.49,25404,22.5,74222.8,20.17,-16.75,-19.81,0,*4A
1498316877.73,25405,22.5,74216.5,20.15,-17.07,-20.05,0,*4B
1498316878.97,25406,22.56,74220.0,20.15,-17.45,-20.25,0,*4C
1498316880.21,25407,22.5,74220.3,20.15,-17.93,-20.73,0,*45
1498316881.46,25408,22.5,74220.3,20.17,-18.55,-21.13,0,*4A
1498316882.67,25409,22.56,74220.5,20.15,-17.69,-20.09,0,*43
1498316883.92,25410,22.5,74222.3,20.17,-18.73,-21.03,0,*46
1498316885.14,25411,22.5,74220.5,20.15,-18.25,-20.25,0,*43
1498316886.37,25412,22.5,74222.8,20.17,-18.07,-20.05,0,*40
1498316887.6,25413,22.56,74222.3,20.17,-18.25,-19.95,0,*42
1498316888.83,25414,22.5,74222.8,20.21,-18.17,-19.75,0,*4F
1498316890.06,25415,22.56,74220.8,20.23,-18.55,-20.09,0,*4B
1498316891.27,25416,22.5,74222.0,20.23,-19.17,-20.59,0,*4A
1498316892.52,25417,22.56,74222.5,20.23,-18.93,-20.15,0,*4E
1498316893.77,25418,22.56,74222.3,20.21,-18.65,-19.61,0,*43
1498316895.0,25419,22.5,74220.3,20.23,-18.79,-19.85,0,*47
1498316896.21,25420,22.56,74222.3,20.23,-18.79,-19.51,0,*44
1498316897.41,25421,22.5,74220.5,20.23,-19.03,-19.71,0,*4B
1498316898.64,25422,22.5,74220.3,20.27,-19.13,-19.61,0,*4C